Location: Unspecified
(0.0000°N, 0.0000°E)
Time: 01:27:42
(UTC+01:00)

Iridium 76 - Visible Passes

Search period start: 13 February 2016 00:00
Search period end: 23 February 2016 00:00
Orbit: 776 x 779 km, 86.4° (Epoch: 12 February)

Date Brightness Start Highest point End Pass type
(mag) Time Alt. Az. Time Alt. Az. Time Alt. Az.
19 Feb 8.0 21:16:06 10° S 21:16:07 10° S 21:16:07 10° S visible
21 Feb 8.0 21:50:04 10° SSW 21:51:05 15° SSW 21:51:05 15° SSW visible
22 Feb 7.0 21:16:06 10° S 21:18:27 28° S 21:18:27 28° S visible
